"2009-12-26 00:00:00",1535324,2.391,56.13,6.516,1.224,-2.869,98.06055,-5.64,-4.455,33.64,0,109.2,13.75,-4.91,18.1
"2009-12-26 00:00:30",1535325,1.746,46.23,4.403,0.597,-4.556,98.06055,-5.64,-4.514,33.3,0,109.2,13.75,-4.91,8.2
"2009-12-26 00:01:00",1535326,2.061,53.06,8.03,1.297,-3.371,98.06055,-5.64,-4.469,33.18,0,109.2,13.75,-4.91,15.1
"2009-12-26 00:01:30",1535327,3.061,59.85,7.66,1.03,-1.034,98.05659,-5.65,-4.33,33.18,0,109.2,13.75,-4.92,21.8
"2009-12-26 00:02:00",1535328,3.754,57.17,5.321,0.731,-0.569,98.04723,-5.674,-4.321,33.14,0,109.2,13.75,-4.94,19.2
"2009-12-26 00:02:30",1535329,3.217,67.8,6.2,1.087,-1.248,98.04212,-5.687,-4.372,33.08,0,109.2,13.75,-4.96,29.8
"2009-12-26 00:03:00",1535330,2.639,73.69,7.68,1.177,-2.406,98.04042,-5.691,-4.367,33.19,0,109.2,13.75,-4.96,35.7
"2009-12-26 00:03:30",1535331,2.761,75.4,4.923,1.105,-3.371,98.03646,-5.702,-4.432,33.43,0,109.2,13.75,-4.97,37.4
"2009-12-26 00:04:00",1535332,4.193,78.49,8.36,1.093,-2.742,98.03559,-5.704,-4.508,33.91,0,109.2,13.76,-4.97,40.5
"2009-12-26 00:04:30",1535333,5.127,86.3,4.128,0.532,0.179,98.03163,-5.714,-4.319,34.53,0,109.2,13.76,-4.98,48.3
"2009-12-26 00:05:00",1535334,5.304,83.7,4.565,0.796,0.353,98.02795,-5.723,-4.298,34.57,0,109.2,13.75,-4.99,45.7
"2009-12-26 00:05:30",1535335,5.513,83.3,6.642,0.776,0.567,98.02766,-5.724,-4.288,34.46,0,109.2,13.75,-4.99,45.3
"2009-12-26 00:06:00",1535336,5.029,69.52,5.794,0.529,0.182,98.02988,-5.718,-4.371,34.19,0,109.2,13.75,-4.99,31.5
"2009-12-26 00:06:30",1535337,4.137,65.33,6.797,1.215,-1.798,98.02821,-5.723,-4.395,33.8,0,109.2,13.74,-4.99,27.3
"2009-12-26 00:07:00",1535338,3.616,64.76,7.595,0.992,-2.51,98.02709,-5.725,-4.511,33.52,0,109.2,13.74,-4.99,26.8
"2009-12-26 00:07:30",1535339,3.775,63.25,6.427,1.165,-2.675,98.02648,-5.727,-4.479,33.57,0,109.2,13.75,-5.00,25.2
"2009-12-26 00:08:00",1535340,3.844,62.16,7.193,1.03,-1.299,98.01231,-5.763,-4.396,33.67,0,109.2,13.75,-5.03,24.2
"2009-12-26 00:08:30",1535341,4.859,61.44,4.946,1.038,-0.304,98.00497,-5.782,-4.387,33.63,0,109.2,13.75,-5.05,23.4
"2009-12-26 00:09:00",1535342,5.021,57.15,5.2,0.918,-0.094,98.00322,-5.786,-4.385,33.27,0,109.2,13.75,-5.05,19.2
"2009-12-26 00:09:30",1535343,4.812,62.87,9.22,0.943,0.1,97.99699,-5.802,-4.41,33.29,0,109.2,13.75,-5.07,24.9
"2009-12-26 00:10:00",1535344,5.225,56.05,5.278,0.966,-0.346,97.99781,-5.8,-4.376,33.4,0,109.2,13.75,-5.07,18.0
"2009-12-26 00:10:30",1535345,4.817,55.85,5.198,1.167,-0.879,97.99724,-5.801,-4.426,32.96,0,109.2,13.76,-5.07,17.8
"2009-12-26 00:11:00",1535346,4.62,50.15,5.464,1.028,-1.264,98.00002,-5.794,-4.431,32.59,0,109.2,13.76,-5.06,12.2
"2009-12-26 00:11:30",1535347,3.824,42.7,8.53,1.187,-2.168,98.00057,-5.793,-4.517,32.36,0,109.2,13.76,-5.06,4.7
"2009-12-26 00:12:00",1535348,4.4,43.76,5.74,0.961,-0.481,98.00002,-5.794,-4.429,32.18,0,109.2,13.76,-5.06,5.8
"2009-12-26 00:12:30",1535349,3.966,38.18,6.57,1.011,-0.49,98.00418,-5.784,-4.433,32.07,0,109.2,13.76,-5.05,0.2
"2009-12-26 00:13:00",1535350,3.439,41.51,7.429,1.203,-0.914,98.00585,-5.779,-4.455,31.93,0,109.2,13.76,-5.05,3.5
"2009-12-26 00:13:30",1535351,2.687,58.55,8.29,1.15,-1.903,98.0064,-5.778,-4.533,31.89,0,109.2,13.76,-5.05,20.5
"2009-12-26 00:14:00",1535352,2.288,50.73,9,0.921,-4.19,98.00863,-5.772,-4.636,31.97,0,109.2,13.76,-5.04,12.7
"2009-12-26 00:14:30",1535353,3.109,56.51,7.535,1.143,-1.907,98.00974,-5.77,-4.45,32.16,0,109.2,13.76,-5.04,18.5
"2009-12-26 00:15:00",1535354,3.666,57.21,6.172,1.199,-1.105,98.01252,-5.762,-4.5,32.11,0,109.2,13.76,-5.03,19.2
"2009-12-26 00:15:30",1535355,4.184,52.71,5.434,1.033,-0.671,98.01335,-5.76,-4.439,32.21,0,109.2,13.76,-5.03,14.7
"2009-12-26 00:16:00",1535356,3.632,49.56,7.424,1.16,-1.353,98.0153,-5.755,-4.463,32.12,0,109.3,13.76,-5.02,11.6
"2009-12-26 00:16:30",1535357,3.916,47.05,4.989,0.834,-1.052,98.01585,-5.754,-4.539,32.05,0,109.2,13.76,-5.02,9.0
"2009-12-26 00:17:00",1535358,2.654,41.24,5.031,0.939,-3.581,98.01558,-5.755,-4.552,31.93,0,109.2,13.76,-5.02,3.2
"2009-12-26 00:17:30",1535359,3.588,52.03,4.208,1.107,-1.374,98.01585,-5.754,-4.511,31.82,0,109.2,13.76,-5.02,14.0
"2009-12-26 00:18:00",1535360,3.186,44.4,6.204,1.159,-1.819,98.01864,-5.747,-4.516,31.74,0,109.2,13.76,-5.02,6.4
"2009-12-26 00:18:30",1535361,4.058,49.07,6.32,0.891,-1.032,98.01836,-5.748,-4.474,31.78,0,109.2,13.76,-5.02,11.1
"2009-12-26 00:19:00",1535362,3.99,45.78,7.599,1.201,-0.775,98.01807,-5.748,-4.488,31.79,0,109.2,13.76,-5.02,7.8
"2009-12-26 00:19:30",1535363,4.208,53.62,6.061,1.027,-1.195,98.01864,-5.747,-4.522,31.94,0,109.2,13.76,-5.02,15.6
"2009-12-26 00:20:00",1535364,4.13,54.63,5.874,0.98,-1.069,98.01974,-5.744,-4.511,31.99,0,109.2,13.76,-5.01,16.6
"2009-12-26 00:20:30",1535365,3.725,52.54,6.224,1.145,-1.845,98.01752,-5.75,-4.503,31.94,0,109.2,13.76,-5.02,14.5
"2009-12-26 00:21:00",1535366,3.763,63.96,6.932,1.107,-0.555,98.01919,-5.745,-4.483,31.97,0,109.2,13.76,-5.01,26.0
"2009-12-26 00:21:30",1535367,3.447,57.89,6.007,1.021,-0.682,98.02003,-5.743,-4.5,31.95,0,109.2,13.76,-5.01,19.9
"2009-12-26 00:22:00",1535368,3.028,65.03,6.751,1.169,-1.707,98.01919,-5.745,-4.535,31.86,0,109.2,13.76,-5.01,27.0
"2009-12-26 00:22:30",1535369,2.202,70.77,3.663,0.953,-3.662,98.02003,-5.743,-4.557,31.83,0,109.2,13.76,-5.01,32.8
"2009-12-26 00:23:00",1535370,3.758,69.5,5.418,0.969,-1.427,98.01836,-5.748,-4.509,31.98,0,109.2,13.76,-5.02,31.5
"2009-12-26 00:23:30",1535371,3.934,67.51,4.243,1.193,-1.576,98.01864,-5.747,-4.48,32.17,0,109.2,13.76,-5.02,29.5
"2009-12-26 00:24:00",1535372,4.932,68.86,4.772,0.908,-0.328,98.01836,-5.748,-4.425,32.5,0,109.2,13.76,-5.02,30.9
"2009-12-26 00:24:30",1535373,4.156,62.31,6.201,1.204,-0.951,98.01864,-5.747,-4.464,32.81,0,109.2,13.76,-5.02,24.3
"2009-12-26 00:25:00",1535374,3.855,58.46,6.148,1.013,-0.694,98.01864,-5.747,-4.45,32.67,0,109.2,13.76,-5.02,20.5
"2009-12-26 00:25:30",1535375,2.785,60.31,6.006,1.086,-2.573,98.01864,-5.747,-4.492,32.32,0,109.2,13.76,-5.02,22.3
"2009-12-26 00:26:00",1535376,3.829,70.07,6.023,1.093,-1.632,98.01836,-5.748,-4.508,32.22,0,109.2,13.76,-5.02,32.1
"2009-12-26 00:26:30",1535377,3.884,65.01,4.353,1.282,-1.816,98.01974,-5.744,-4.459,32.31,0,109.2,13.76,-5.01,27.0
"2009-12-26 00:27:00",1535378,5.542,62.41,6.255,1.09,-0.338,98.01807,-5.748,-4.425,32.68,0,109.2,13.76,-5.02,24.4
"2009-12-26 00:27:30",1535379,5.863,55.93,9.68,0.977,-0.858,98.01752,-5.75,-4.469,33.14,0,109.2,13.77,-5.02,17.9
"2009-12-26 00:28:00",1535380,6.797,50.51,6.396,1.048,-0.332,98.01836,-5.748,-4.481,33.39,0,109.2,13.76,-5.02,12.5
"2009-12-26 00:28:30",1535381,7.537,48.9,4.664,0.635,0.515,98.01663,-5.752,-4.401,33.51,0,109.2,13.77,-5.02,10.9
"2009-12-26 00:29:00",1535382,7.768,52.39,4.147,0.657,0.257,98.00276,-5.787,-4.413,33.65,0,109.2,13.76,-5.06,14.4
"2009-12-26 00:29:30",1535383,8.03,54.98,4.051,0.648,0.354,97.99709,-5.802,-4.406,34.09,0,109.2,13.76,-5.07,17.0
"2009-12-26 00:30:00",1535384,8.48,51.13,4.061,0.657,0.565,97.98829,-5.824,-4.418,34.42,0,109.2,13.76,-5.09,13.1
"2009-12-26 00:30:30",1535385,8.03,48.69,5.08,0.952,0.704,97.98488,-5.833,-4.444,34.52,0,109.2,13.76,-5.10,10.7
"2009-12-26 00:31:00",1535386,8.31,47.32,4.226,0.765,1.01,97.98432,-5.834,-4.465,34.33,0,109.2,13.76,-5.10,9.3
"2009-12-26 00:31:30",1535387,8.37,46.84,5.149,1.042,0.998,97.97269,-5.864,-4.481,34.36,0,109.2,13.76,-5.13,8.8
"2009-12-26 00:32:00",1535388,7.962,49.6,5.102,0.816,1.121,97.96133,-5.893,-4.492,33.91,0,109.2,13.76,-5.16,11.6
"2009-12-26 00:32:30",1535389,6.918,40.43,7.573,1.073,1.118,97.95369,-5.912,-4.511,33.68,0,109.2,13.76,-5.18,2.4
"2009-12-26 00:33:00",1535390,5.466,35.76,6.123,0.762,1.11,97.95084,-5.919,-4.527,33.82,0,109.2,13.76,-5.19,357.8
"2009-12-26 00:33:30",1535391,5.244,34.97,6.262,0.653,0.604,97.95196,-5.917,-4.531,33.79,0,109.2,13.76,-5.19,357.0
"2009-12-26 00:34:00",1535392,5.351,42.66,4.952,0.776,0.123,97.9514,-5.918,-4.542,33.6,0,109.2,13.76,-5.19,4.7
"2009-12-26 00:34:30",1535393,5.331,46.06,7.604,0.673,-0.248,97.95307,-5.914,-4.564,33.42,0,109.2,13.76,-5.18,8.1
"2009-12-26 00:35:00",1535394,5.09,53.36,6.185,0.754,-0.373,97.95279,-5.914,-4.573,33.27,0,109.2,13.76,-5.18,15.4
"2009-12-26 00:35:30",1535395,4.678,47.53,9.31,0.828,-0.717,97.95251,-5.915,-4.572,33.19,0,109.1,13.76,-5.18,9.5
"2009-12-26 00:36:00",1535396,3.167,38.8,9.12,1.257,-3.853,97.95473,-5.91,-4.726,33.03,0,109.2,13.76,-5.18,0.8
"2009-12-26 00:36:30",1535397,2.86,39.42,4.73,0.519,-4.864,97.95557,-5.907,-4.86,32.72,0,109.2,13.76,-5.18,1.4
"2009-12-26 00:37:00",1535398,2.54,40.35,4.364,0.829,-3.876,97.95529,-5.908,-4.758,32.56,0,109.2,13.76,-5.18,2.3
"2009-12-26 00:37:30",1535399,4.462,47.43,3.261,0.742,-0.028,97.95473,-5.91,-4.57,32.57,0,109.2,13.76,-5.18,9.4
"2009-12-26 00:38:00",1535400,4.975,48.76,5.204,0.712,0.243,97.95501,-5.909,-4.595,32.77,0,109.2,13.76,-5.18,10.8
"2009-12-26 00:38:30",1535401,5.015,44.36,5.122,0.739,0.174,97.95473,-5.91,-4.576,33.42,0,109.2,13.76,-5.18,6.4
"2009-12-26 00:39:00",1535402,4.686,39.39,6.484,0.751,0.037,97.95613,-5.906,-4.581,33.55,0,109.2,13.76,-5.17,1.4
"2009-12-26 00:39:30",1535403,3.499,30.51,11.04,1.137,-2.744,97.95751,-5.902,-4.743,33.42,0,109.2,13.76,-5.17,352.5
"2009-12-26 00:40:00",1535404,3.731,32.96,6.122,1.361,-2.559,97.95751,-5.902,-4.641,33.45,0,109.2,13.76,-5.17,355.0
"2009-12-26 00:40:30",1535405,3.284,29.17,5.453,1.18,-2.039,97.95724,-5.903,-4.761,33.16,0,109.2,13.76,-5.17,351.2
"2009-12-26 00:41:00",1535406,3.97,33.92,6.207,0.851,-0.664,97.95613,-5.906,-4.624,33.23,0,109.2,13.76,-5.17,355.9
"2009-12-26 00:41:30",1535407,3.944,41.38,7.185,1.075,-1.202,97.95501,-5.909,-4.641,33.18,0,109.2,13.76,-5.18,3.4
"2009-12-26 00:42:00",1535408,3.835,32.52,8.42,1.085,-0.807,97.95724,-5.903,-4.652,33.41,0,109.2,13.76,-5.17,354.5
"2009-12-26 00:42:30",1535409,2.521,26.47,5.556,1.04,-3.412,97.95751,-5.902,-4.763,33.33,0,109.2,13.76,-5.17,348.5
"2009-12-26 00:43:00",1535410,3.672,32.96,8.51,1.185,-1.826,97.95695,-5.904,-4.663,33.42,0,109.2,13.77,-5.17,355.0
"2009-12-26 00:43:30",1535411,2.824,31.39,4.686,1.092,-2.863,97.95751,-5.902,-4.724,33.35,0,109.2,13.77,-5.17,353.4
"2009-12-26 00:44:00",1535412,2.851,30.19,11.86,1.189,-1.792,97.95779,-5.902,-4.627,33.35,0,109.2,13.77,-5.17,352.2
"2009-12-26 00:44:30",1535413,2.808,25.92,12.81,1.326,-1.641,97.95779,-5.902,-4.652,33.25,0,109.2,13.77,-5.17,347.9
"2009-12-26 00:45:00",1535414,3.112,27.02,10.45,1.153,-1.154,97.95751,-5.902,-4.666,33.25,0,109.2,13.77,-5.17,349.0
"2009-12-26 00:45:30",1535415,1.746,7.247,10.51,0.938,-3.934,97.95779,-5.902,-4.785,33.27,0,109.2,13.77,-5.17,329.2
"2009-12-26 00:46:00",1535416,2.3,14.59,9.73,1.137,-2.829,97.95779,-5.902,-4.778,33.25,0,109.2,13.77,-5.17,336.6
"2009-12-26 00:46:30",1535417,2.591,18.25,11.06,1.307,-2.362,97.95779,-5.902,-4.684,33.18,0,109.2,13.77,-5.17,340.2
"2009-12-26 00:47:00",1535418,2.957,20.04,11.64,0.936,-0.745,97.95779,-5.902,-4.642,33.15,0,109.2,13.77,-5.17,342.0
"2009-12-26 00:47:30",1535419,3.211,16.08,12.46,1.255,-1.949,97.95779,-5.902,-4.653,33.18,0,109.2,13.77,-5.17,338.1
"2009-12-26 00:48:00",1535420,3.523,16.12,10.41,1.23,-1.436,97.95751,-5.902,-4.675,33.06,0,109.2,13.77,-5.17,338.1
"2009-12-26 00:48:30",1535421,2.083,10.55,12.83,0.729,-4.628,97.9575,-5.902,-4.75,33,0,109.2,13.77,-5.17,332.5
"2009-12-26 00:49:00",1535422,3.959,22,7.124,0.903,-1.624,97.9575,-5.902,-4.677,33.09,0,109.2,13.77,-5.17,344.0
"2009-12-26 00:49:30",1535423,3.242,27.58,6.72,1.169,-1.623,97.95552,-5.908,-4.618,33.14,0,109.2,13.78,-5.18,349.6
"2009-12-26 00:50:00",1535424,3.524,26.8,6.702,0.996,-1.174,97.94901,-5.924,-4.603,33.1,0,109.2,13.78,-5.19,348.8
"2009-12-26 00:50:30",1535425,3.21,13.35,9.56,1.026,-2.051,97.94786,-5.927,-4.659,33.03,0,109.2,13.77,-5.20,335.4
"2009-12-26 00:51:00",1535426,2.233,14.51,10.62,1.325,-2.855,97.94588,-5.932,-4.668,33.11,0,109.2,13.77,-5.20,336.5
"2009-12-26 00:51:30",1535427,2.935,5.381,10.62,1.342,-2.819,97.93992,-5.947,-4.742,33.03,0,109.2,13.77,-5.22,327.4
"2009-12-26 00:52:00",1535428,2.32,5.947,15.94,0.892,-3.521,97.93879,-5.95,-4.731,32.97,0,109.2,13.78,-5.22,327.9
"2009-12-26 00:52:30",1535429,3.011,8.36,8.47,1.129,-1.467,97.93764,-5.953,-4.626,33.02,0,109.2,13.78,-5.22,330.4
"2009-12-26 00:53:00",1535430,3.384,3.616,7.709,0.951,-0.938,97.93709,-5.954,-4.574,33.08,0,109.1,13.78,-5.22,325.6
"2009-12-26 00:53:30",1535431,2.16,4.255,9.36,1.129,-2.784,97.93764,-5.953,-4.722,32.89,0,109.2,13.77,-5.22,326.3
"2009-12-26 00:54:00",1535432,1.388,18.28,6.379,0.837,-4.29,97.93539,-5.959,-4.727,32.84,0,109.2,13.77,-5.23,340.3
"2009-12-26 00:54:30",1535433,2.122,0.368,17.33,1.045,-3.122,97.93226,-5.967,-4.829,32.74,0,109.2,13.77,-5.24,322.4
"2009-12-26 00:55:00",1535434,1.668,358.4,6.625,1.181,-2.855,97.93396,-5.962,-4.685,32.86,0,109.2,13.77,-5.23,320.4
"2009-12-26 00:55:30",1535435,3.143,340.1,10.51,1.006,-2.092,97.93027,-5.972,-4.699,32.85,0,109.2,13.77,-5.24,302.1
"2009-12-26 00:56:00",1535436,3.146,339.8,8.54,0.956,-1.602,97.93027,-5.972,-4.592,33,0,109.2,13.77,-5.24,301.8
"2009-12-26 00:56:30",1535437,2.334,330.3,7.124,1.149,-3.158,97.9283,-5.977,-4.721,32.88,0,109.2,13.77,-5.25,292.3
"2009-12-26 00:57:00",1535438,2.8,6.138,7.627,0.956,-1.356,97.93027,-5.972,-4.699,32.84,0,109.2,13.77,-5.24,328.1
"2009-12-26 00:57:30",1535439,0.676,3.11,6.068,0.574,-3.96,97.92886,-5.975,-4.754,32.81,0,109.2,13.77,-5.24,325.1
"2009-12-26 00:58:00",1535440,1.357,346.2,11.05,0.992,-4.104,97.92801,-5.978,-4.845,32.73,0,109.2,13.77,-5.25,308.2
"2009-12-26 00:58:30",1535441,1.479,349.1,8.75,1.081,-3.838,97.92886,-5.975,-4.76,32.86,0,109.2,13.78,-5.24,311.1
"2009-12-26 00:59:00",1535442,2.776,336.6,7.82,1.194,-1.685,97.9283,-5.977,-4.669,32.94,0,109.2,13.78,-5.25,298.6
"2009-12-26 00:59:30",1535443,2.882,332.4,12.82,1.14,-1.625,97.92744,-5.979,-4.641,32.95,0,109.2,13.78,-5.25,294.4
"2009-12-26 01:00:00",1535444,2.799,341.2,21.59,1.054,-1.398,97.92545,-5.984,-4.634,32.94,0,109.2,13.78,-5.25,303.2
"2009-12-26 01:00:30",1535445,2.415,344.6,9.78,1.21,-2.648,97.92687,-5.98,-4.709,32.87,0,109.2,13.78,-5.25,306.6
"2009-12-26 01:01:00",1535446,1.558,340.2,14.95,0.969,-4.182,97.92517,-5.985,-4.864,32.7,0,109.2,13.78,-5.25,302.2
"2009-12-26 01:01:30",1535447,2.047,327.9,7.099,1.085,-3.365,97.9266,-5.981,-4.729,32.78,0,109.2,13.78,-5.25,289.9
"2009-12-26 01:02:00",1535448,1.295,316.2,8.3,1.047,-3.899,97.92631,-5.982,-4.785,32.65,0,109.2,13.78,-5.25,278.2
"2009-12-26 01:02:30",1535449,2.305,316.6,15.72,1.204,-2.059,97.92631,-5.982,-4.646,32.65,0,109.2,13.78,-5.25,278.6
"2009-12-26 01:03:00",1535450,2.729,311.6,8.02,0.945,-1.026,97.9266,-5.981,-4.623,32.58,0,109.2,13.78,-5.25,273.6
"2009-12-26 01:03:30",1535451,1.993,302.3,9.83,1.209,-2.422,97.92715,-5.98,-4.733,32.43,0,109.2,13.78,-5.25,264.3
"2009-12-26 01:04:00",1535452,1.102,312.2,5.141,0.097,-4.717,97.92603,-5.983,-4.761,32.36,0,109.2,13.82,-5.25,274.2
"2009-12-26 01:04:30",1535453,1.904,311.4,6.803,1.131,-3.42,97.92744,-5.979,-4.729,32.34,0,109.2,13.78,-5.25,273.4
"2009-12-26 01:05:00",1535454,1.914,308.1,6.632,1.15,-2.967,97.92943,-5.974,-4.782,32.33,0,109.2,13.79,-5.24,270.1
"2009-12-26 01:05:30",1535455,1.628,305.2,5.983,1.177,-3.154,97.93,-5.973,-4.793,32.28,0,109.2,13.79,-5.24,267.2
"2009-12-26 01:06:00",1535456,2.614,282.5,7.79,1.164,-1.005,97.92915,-5.975,-4.62,32.45,0,109.2,13.79,-5.24,244.5
"2009-12-26 01:06:30",1535457,2.657,274,7.724,1.09,-0.789,97.9283,-5.977,-4.689,32.42,0,109.2,13.79,-5.25,236.0
"2009-12-26 01:07:00",1535458,1.318,280.5,5.755,0.567,-4.453,97.93198,-5.967,-4.76,32.4,0,109.2,13.79,-5.24,242.5
"2009-12-26 01:07:30",1535459,2.015,290.6,4.071,0.975,-3.636,97.92971,-5.973,-4.694,32.53,0,109.2,13.79,-5.24,252.6
"2009-12-26 01:08:00",1535460,2.576,295.1,6.753,1.198,-3.156,97.93,-5.973,-4.806,32.41,0,109.2,13.79,-5.24,257.1
"2009-12-26 01:08:30",1535461,3.114,300.8,7.378,1.221,-1.717,97.93567,-5.958,-4.625,32.62,0,109.2,13.79,-5.23,262.8
"2009-12-26 01:09:00",1535462,4.25,317.3,5.82,0.745,-0.859,97.93567,-5.958,-4.626,32.55,0,109.2,13.79,-5.23,279.3
"2009-12-26 01:09:30",1535463,5.617,333.4,5.268,1.054,-0.074,97.93764,-5.953,-4.599,32.42,0,109.2,13.79,-5.22,295.4
"2009-12-26 01:10:00",1535464,10.24,355.1,13.92,1.545,0.887,97.95127,-5.918,-4.584,33.32,0,109.2,13.78,-5.19,317.1
"2009-12-26 01:10:30",1535465,10.2,9.95,9.43,1.431,1.71,97.95949,-5.897,-4.534,32.98,0,109.2,13.78,-5.17,332.0
"2009-12-26 01:11:00",1535466,4.65,22.25,12.35,1.505,1.413,97.9802,-5.845,-4.532,32.92,0,109.2,13.78,-5.11,344.2
"2009-12-26 01:11:30",1535467,3.694,348.9,16.69,0.96,0.49,98.01736,-5.75,-4.52,33.21,0,109.2,13.77,-5.02,310.9
"2009-12-26 01:12:00",1535468,3.789,339.4,16.07,0.864,0.202,98.02587,-5.728,-4.491,33.45,0,109.2,13.77,-5.00,301.4
"2009-12-26 01:12:30",1535469,2.69,321,24.79,1.158,-1.978,98.02587,-5.728,-4.57,33.54,0,109.2,13.77,-5.00,283.0
"2009-12-26 01:13:00",1535470,3.483,274.3,7.777,1.402,-3.125,98.02587,-5.728,-4.627,33.54,0,109.2,13.77,-5.00,236.3
"2009-12-26 01:13:30",1535471,4.065,271.7,4.844,0.728,-4.542,98.02587,-5.728,-4.75,33.12,0,109.2,13.77,-5.00,233.7
"2009-12-26 01:14:00",1535472,5.449,269.8,10.25,1.403,-1.105,98.02587,-5.728,-4.541,33.57,0,109.2,13.77,-5.00,231.8
"2009-12-26 01:14:30",1535473,3.47,244.6,18.47,1.166,0.907,98.0392,-5.695,-4.461,33.18,0,109.2,13.78,-4.96,206.6
"2009-12-26 01:15:00",1535474,3.055,269.9,75.15,1.245,1.289,98.06982,-5.617,-4.42,32.85,0,109.2,13.78,-4.88,231.9
"2009-12-26 01:15:30",1535475,3.374,127.2,34.31,0.879,0.666,98.08939,-5.567,-4.398,33.02,0,109.2,13.78,-4.83,89.2
"2009-12-26 01:16:00",1535476,3.628,92.2,13.54,0.811,0.005,98.06954,-5.617,-4.382,33.68,0,109.2,13.78,-4.89,54.2
"2009-12-26 01:16:30",1535477,3.873,45.58,16.43,0.813,-0.669,98.05991,-5.642,-4.406,33.83,0,109.2,13.78,-4.91,7.6
"2009-12-26 01:17:00",1535478,2.245,24.11,68.53,0.856,-3.376,98.05991,-5.642,-4.518,33.72,0,109.2,13.78,-4.91,346.1
"2009-12-26 01:17:30",1535479,2.027,334.1,74.48,0.508,-4.627,98.05991,-5.642,-4.708,33.35,0,109.2,13.81,-4.91,296.1
"2009-12-26 01:18:00",1535480,1.863,13.57,42.19,0.979,-3.154,98.05991,-5.642,-4.677,33.27,0,109.2,13.78,-4.91,335.6
"2009-12-26 01:18:30",1535481,2.827,35.63,15.94,1.244,-1.277,98.05991,-5.642,-4.45,33.42,0,109.2,13.78,-4.91,357.6
"2009-12-26 01:19:00",1535482,5.76,46.42,47.8,1.055,0.616,98.05991,-5.642,-4.423,33.34,0,109.2,13.78,-4.91,8.4
"2009-12-26 01:19:30",1535483,6.314,15.43,72.19,1.387,0.859,98.05991,-5.642,-4.399,33.04,0,109.2,13.78,-4.91,337.4
"2009-12-26 01:20:00",1535484,4.613,358.3,85.7,1.176,0.874,98.05991,-5.642,-4.392,32.77,0,109.2,13.78,-4.91,320.3
"2009-12-26 01:20:30",1535485,4.219,89.9,27.56,1.171,0.875,98.05991,-5.642,-4.4,32.68,0,109.2,13.78,-4.91,51.9
"2009-12-26 01:21:00",1535486,4.039,286.9,38.77,1.233,-0.579,98.05991,-5.642,-4.402,32.71,0,109.1,13.78,-4.91,248.9
"2009-12-26 01:21:30",1535487,3.736,266.2,29.12,1.868,-1.808,98.06331,-5.633,-4.468,32.8,0,109.2,13.78,-4.90,228.2
"2009-12-26 01:22:00",1535488,3.039,251.6,28.08,1.105,-2.984,98.06614,-5.626,-4.609,32.73,0,109.2,13.78,-4.89,213.6
"2009-12-26 01:22:30",1535489,3.549,277.7,8.85,1.187,-2.535,98.06699,-5.624,-4.456,32.93,0,109.2,13.78,-4.89,239.7
"2009-12-26 01:23:00",1535490,3.548,258.7,21.66,1.06,-0.626,98.06841,-5.62,-4.429,32.99,0,109.2,13.78,-4.89,220.7
"2009-12-26 01:23:30",1535491,4.172,234,6.735,0.835,0.018,98.06898,-5.619,-4.331,33.19,0,109.2,13.78,-4.89,196.0
"2009-12-26 01:24:00",1535492,3.394,232.1,9.22,1.088,-1.691,98.07153,-5.612,-4.399,33.12,0,109.2,13.78,-4.88,194.1
"2009-12-26 01:24:30",1535493,3.725,233.1,6.413,1.029,-1.37,98.06926,-5.618,-4.459,33.12,0,109.2,13.78,-4.89,195.1
"2009-12-26 01:25:00",1535494,2.14,227.6,3.961,0.998,-3.142,98.0667,-5.625,-4.492,33.16,0,109.2,13.78,-4.89,189.6
"2009-12-26 01:25:30",1535495,3.08,228.5,8.62,1.137,-1.548,98.06132,-5.638,-4.44,33.26,0,109.2,13.78,-4.91,190.5
"2009-12-26 01:26:00",1535496,2.323,230.7,8.06,1.137,-2.078,98.05991,-5.642,-4.437,33.26,0,109.2,13.78,-4.91,192.7
"2009-12-26 01:26:30",1535497,2.327,239.1,10.97,1.22,-2.12,98.05991,-5.642,-4.432,33.24,0,109.2,13.78,-4.91,201.1
"2009-12-26 01:27:00",1535498,3.232,228.3,10.52,1.074,-0.94,98.05991,-5.642,-4.405,33.24,0,109.2,13.78,-4.91,190.3
"2009-12-26 01:27:30",1535499,2.88,248.7,10.64,1.218,-1.582,98.05991,-5.642,-4.432,33.2,0,109.1,13.78,-4.91,210.7
"2009-12-26 01:28:00",1535500,2.25,244.1,8.56,0.939,-3.838,98.05991,-5.642,-4.574,33.12,0,109.2,13.78,-4.91,206.1
"2009-12-26 01:28:30",1535501,3.448,240.4,8.7,0.99,-1.183,98.05991,-5.642,-4.404,33.34,0,109.2,13.78,-4.91,202.4
"2009-12-26 01:29:00",1535502,2.721,225.2,6.295,1.119,-2.406,98.05991,-5.642,-4.514,33.24,0,109.2,13.78,-4.91,187.2
"2009-12-26 01:29:30",1535503,3.459,222.7,8.04,1.189,-1.278,98.05991,-5.642,-4.392,33.28,0,109.2,13.78,-4.91,184.7
"2009-12-26 01:30:00",1535504,3.698,218.9,8.42,1.114,-0.956,98.05991,-5.642,-4.454,33.21,0,109.2,13.78,-4.91,180.9
"2009-12-26 01:30:30",1535505,2.901,217.5,10.66,1.089,-2.147,98.05622,-5.651,-4.454,33.27,0,109.2,13.78,-4.92,179.5
"2009-12-26 01:31:00",1535506,2.886,232.2,16.12,1.15,-1.644,98.04118,-5.69,-4.455,33.28,0,109.2,13.78,-4.96,194.2
"2009-12-26 01:31:30",1535507,2.712,226.6,6.066,1.099,-1.407,98.03438,-5.707,-4.418,33.28,0,109.2,13.78,-4.97,188.6
"2009-12-26 01:32:00",1535508,1.775,223.6,6.973,1.055,-3.822,98.02785,-5.723,-4.548,33.27,0,109.2,13.78,-4.99,185.6
"2009-12-26 01:32:30",1535509,1.984,234.3,11.09,0.968,-3.033,98.02587,-5.728,-4.484,33.4,0,109.2,13.78,-5.00,196.3
"2009-12-26 01:33:00",1535510,3.006,238.5,7.878,1.136,-1.684,98.02587,-5.728,-4.473,33.42,0,109.2,13.79,-5.00,200.5
"2009-12-26 01:33:30",1535511,2.046,245.4,6.932,1.044,-2.654,98.02587,-5.728,-4.551,33.26,0,109.2,13.79,-5.00,207.4
"2009-12-26 01:34:00",1535512,2.267,249.7,9.13,1.109,-1.94,98.02587,-5.728,-4.601,33.34,0,109.2,13.79,-5.00,211.7
"2009-12-26 01:34:30",1535513,1.781,273.8,10.04,1.308,-2.312,98.02587,-5.728,-4.553,33.73,0,109.2,13.79,-5.00,235.8
"2009-12-26 01:35:00",1535514,0.713,284.6,8.84,0.731,-4.115,98.02104,-5.741,-4.587,33.88,0,109.2,13.79,-5.01,246.6
"2009-12-26 01:35:30",1535515,1.678,331.3,19.25,1.245,-3.246,98.01424,-5.758,-4.582,34.01,0,109.2,13.79,-5.03,293.3
"2009-12-26 01:36:00",1535516,0.341,357.9,18.01,0.521,-4.532,98.01395,-5.759,-4.603,34.04,0,109.2,13.79,-5.03,319.9
"2009-12-26 01:36:30",1535517,0.426,9.17,14.58,0.747,-5.102,98.01112,-5.766,-4.689,33.98,0,109.2,13.79,-5.03,331.2
"2009-12-26 01:37:00",1535518,1.97,324.9,29.86,1.041,-2.926,98.00941,-5.77,-4.649,34.1,0,109.2,13.79,-5.04,286.9
"2009-12-26 01:37:30",1535519,1.513,264.5,14.93,1.187,-3.313,98.00771,-5.775,-4.481,34.36,0,109.2,13.79,-5.04,226.5
"2009-12-26 01:38:00",1535520,1.693,264.6,12.85,1.154,-2.4,98.00545,-5.78,-4.493,34.41,0,109.2,13.79,-5.05,226.6
"2009-12-26 01:38:30",1535521,1.293,270.7,50.72,1.11,-4.199,98.00062,-5.793,-4.66,34.19,0,109.2,13.79,-5.06,232.7
"2009-12-26 01:39:00",1535522,1.298,263.4,26.73,1.191,-4.665,97.99325,-5.812,-4.735,33.94,0,109.2,13.79,-5.08,225.4
"2009-12-26 01:39:30",1535523,1.438,238.4,12.53,1.223,-3.766,97.99182,-5.815,-4.572,33.95,0,109.2,13.79,-5.08,200.4
"2009-12-26 01:40:00",1535524,1.645,229.9,8.22,1.161,-4.559,97.99182,-5.815,-4.745,33.58,0,109.2,13.79,-5.08,191.9
"2009-12-26 01:40:30",1535525,2.333,237.9,10.88,1.296,-2.763,97.99182,-5.815,-4.561,33.64,0,109.2,13.8,-5.08,199.9
"2009-12-26 01:41:00",1535526,3.781,249.2,7.379,0.83,-0.519,97.99182,-5.815,-4.474,33.76,0,109.2,13.79,-5.08,211.2
"2009-12-26 01:41:30",1535527,3.331,246.8,5.904,1.064,-1.284,97.99182,-5.815,-4.523,33.7,0,109.2,13.79,-5.08,208.8
"2009-12-26 01:42:00",1535528,1.991,241.2,4.767,1.004,-3.151,97.98729,-5.827,-4.636,33.6,0,109.2,13.79,-5.10,203.2
"2009-12-26 01:42:30",1535529,2.518,238.5,6.513,1.198,-2.681,97.97482,-5.858,-4.602,33.63,0,109.2,13.79,-5.13,200.5
"2009-12-26 01:43:00",1535530,2.206,236.8,6.582,1.168,-3.366,97.97226,-5.865,-4.748,33.46,0,109.2,13.79,-5.13,198.8
"2009-12-26 01:43:30",1535531,2.632,242.3,6.263,1.238,-2.395,97.96913,-5.873,-4.587,33.64,0,109.2,13.79,-5.14,204.3
"2009-12-26 01:44:00",1535532,3.032,245.4,7.915,1.111,-1.073,97.96545,-5.882,-4.501,33.72,0,109.2,13.79,-5.15,207.4
"2009-12-26 01:44:30",1535533,3.529,246.6,5.86,1.128,-0.881,97.96147,-5.892,-4.522,33.72,0,109.2,13.79,-5.16,208.6